Location: Vigo di Fassa
(46.4167°N, 11.6667°E)
Time: 14:52:51
(UTC+00:00)

Cosmos 1633 Rocket - Pass Details

Date: 03 March 2021
Orbit: 606 x 624 km, 82.5° (Epoch: 20 April)

Event Time Altitude Azimuth Distance (km) Brightness Sun altitude
Rises 17:55:52 0° 192° (SSW) 2,889 6.6 -10.0°
Reaches altitude 10° 17:58:05 10° 194° (SSW) 1,989 5.8 -10.4°
Maximum altitude 18:02:30 74° 280° (W) 654 3.3 -11.2°
Drops below altitude 10° 18:06:57 10° 6° (N) 2,009 5.7 -11.9°
Sets 18:09:12 0° 8° (N) 2,920 6.5 -12.3°
